Location: Brno
(49.2000°N, 16.6330°E)
Time: 18:33:28
(UTC+02:00)

Transit 4A - Pass Details

Date: 01 August 2021
Orbit: 871 x 974 km, 66.8° (Epoch: 16 September)

Event Time Altitude Azimuth Distance (km) Brightness Sun altitude
Rises 09:29:33 0° 323° (NW) 3,475 10.5 37.7°
Reaches altitude 10° 09:32:02 10° 321° (NW) 2,539 9.9 38.0°
Maximum altitude 09:37:52 71° 239° (WSW) 941 8.4 38.9°
Drops below altitude 10° 09:43:47 10° 157° (SSE) 2,576 10.9 39.8°
Sets 09:46:19 0° 155° (SSE) 3,529 11.4 40.2°
